Weather Roundup
Issued by NWS Springfield, MO

Home | Current Version | Previous Version | Text Only | Print | Product List | Glossary On
Versions: 1 2 3 4 5 6 7 8 9 10 11 12 13 14 15 16 17 18 19 20 21 22 23 24 25 26 27 28 29 30 31 32 33 34 35 36 37 38 39 40 41 42 43 44 45 46 47 48 49 50
012
NZUS99 KSGF 280807
HRRSGF

HOURLY WEATHER
NATIONAL WEATHER SERVICE SPRINGFIELD MO
300 AM CDT TUE MAR 28 2017

......SGF CWA......

CITY           SKY/WX    TMP DP  RH WIND       PRES   REMARKS
SPRINGFIELD    CLOUDY    51  49  92 N6        29.98R
JOPLIN         CLOUDY    51  50  96 NE5       29.99S
WEST PLAINS    CLOUDY    52  50  93 NW3       29.97R
ROLLA          CLOUDY    52  52 100 N6        29.96R FOG
OSAGE BEACH    MIX PCPN N/A N/A N/A W5        29.99R
BRANSON        CLOUDY    50  50 100 CALM      29.98S FOG

......SURROUNDING SGF CWA......

CITY           SKY/WX    TMP DP  RH WIND       PRES   REMARKS
CHANUTE        CLOUDY    52  46  80 NE7       29.99S
PARSONS        CLOUDY    52  47  83 CALM      30.00S
COFFEYVILLE    CLOUDY    53  48  83 NE5       29.99S
EMPORIA        CLOUDY    50  48  93 NE8       29.99S
GROVE OK       CLOUDY    54  50  87 NE5       30.00S
ROGERS AR      CLOUDY    51  49  92 NE5       29.98F
SILOAM SPRINGS CLOUDY    52  45  76 CALM      29.98R
HARRISON AR    CLOUDY    52  49  89 N3        29.98S
NEAR YELLVILLE CLOUDY    54  46  76 CALM      29.96S

......KANSAS AND MISSOURI......

CITY           SKY/WX    TMP DP  RH WIND       PRES   REMARKS
KANSAS CTY INT CLOUDY    49  45  86 N5        30.02S
DOWNTOWN KC    CLOUDY    50  48  93 N6        30.02S FOG
COLUMBIA       CLOUDY    51  50  96 N7        29.98R
SEDALIA        CLOUDY    50  49  96 N6        30.01R
ST JOSEPH      CLOUDY    47  46  97 CALM      30.04S
ST LOUIS       DRIZZLE   54  50  86 N9        29.98S
SPIRIT OF STL  CLOUDY    53  52  96 N8        29.97S
KIRKSVILLE     CLOUDY    48  47  96 N5        30.02R FOG
WICHITA        CLOUDY    51  45  79 E8        29.98S
TOPEKA         CLOUDY    50  46  86 NE3       30.02S
OLATHE         CLOUDY    48  48 100 N6        30.01F FOG

......TENNESSEE......

CITY           SKY/WX    TMP DP  RH WIND       PRES   REMARKS
MEMPHIS        PTCLDY    63  58  83 CALM      29.91S
NASHVILLE      CLOUDY    58  57  97 W6        29.90S

......ARKANSAS.......

CITY           SKY/WX    TMP DP  RH WIND       PRES   REMARKS
FAYETTEVILLE   CLOUDY    52  50  93 CALM      29.97S
FT SMITH       CLEAR     48  45  89 CALM      29.95F
LITTLE ROCK    PTCLDY    56  55  97 N7        29.94R

......OKLAHOMA.......

CITY           SKY/WX    TMP DP  RH WIND       PRES   REMARKS
TULSA          CLOUDY    53  48  83 NE6       29.97R
PONCA CITY     CLEAR     43  41  93 N3        29.98R FOG
MCALESTER      PTCLDY    51  48  89 NE5       29.96R FOG
OKLAHOMA CITY  PTCLDY    50  47  89 E8        29.94F

......IOWA............

CITY           SKY/WX    TMP DP  RH WIND       PRES   REMARKS
DES MOINES     CLOUDY    47  41  80 NE3       30.04S
QUAD CITIES    CLOUDY    49  44  83 N5        30.00S

......ILLINOIS........

CITY           SKY/WX    TMP DP  RH WIND       PRES   REMARKS
QUINCY         CLOUDY    50  48  93 N3        29.98F FOG
CHICAGO        CLOUDY    42  35  76 N10       29.99R




USA.gov is the U.S. government's official web portal to all federal, state and local government web resources and services.